When you browse on this site, cookies collect data to enhance your experience and personalize the content and advertising you see.
Visit our Privacy Policy to learn more. By continuing to use the site, you agree to this use of cookies and data.
  • In Portugal
  • List of Countries
  • For 7 days
  • Water Temperature
  • Weather Map
  • Weather Widgets
  • user-avatar
    Login

    Hourly Weather Lakun

    Today, 25 May, Monday

    Time Temperature Precipitation Wind Pressure Humidity
    00:00 +11°C° 0.1 mm 1 mps 638 mmHg 92%
    01:00 +11°C° 0.1 mm 1 mps 638 mmHg 91%
    02:00 +10°C° 0.1 mm 1 mps 637 mmHg 91%
    03:00 +9°C° 0 mm 0 mps 637 mmHg 92%
    04:00 +11°C° 0 mm 1 mps 638 mmHg 91%
    05:00 +12°C° 0 mm 1 mps 638 mmHg 89%
    06:00 +13°C° 0 mm 1 mps 638 mmHg 88%
    07:00 +14°C° 0 mm 2 mps 639 mmHg 83%
    08:00 +15°C° 0 mm 2 mps 639 mmHg 78%
    09:00 +17°C° 0 mm 3 mps 639 mmHg 71%
    10:00 +18°C° 0.1 mm 3 mps 639 mmHg 68%
    11:00 +19°C° 0.1 mm 4 mps 639 mmHg 66%
    12:00 +20°C° 0.1 mm 4 mps 639 mmHg 63%
    13:00 +19°C° 0.1 mm 4 mps 638 mmHg 65%
    14:00 +19°C° 0.1 mm 3 mps 638 mmHg 66%
    15:00 +19°C° 0.1 mm 3 mps 637 mmHg 68%
    16:00 +18°C° 0.3 mm 3 mps 636 mmHg 72%
    17:00 +17°C° 0.3 mm 2 mps 635 mmHg 76%
    18:00 +16°C° 0.3 mm 2 mps 634 mmHg 80%
    19:00 +15°C° 0.1 mm 2 mps 634 mmHg 81%
    20:00 +14°C° 0.1 mm 2 mps 634 mmHg 82%
    21:00 +13°C° 0.1 mm 2 mps 633 mmHg 82%
    22:00 +13°C° 0 mm 2 mps 633 mmHg 83%
    23:00 +11°C° 0 mm 3 mps 633 mmHg 83%

    Tomorrow, 26 May, Tuesday

    Time Temperature Precipitation Wind Pressure Humidity
    00:00 +11°C° 0 mm 3 mps 633 mmHg 83%
    01:00 +10°C° 0 mm 3 mps 632 mmHg 82%
    02:00 +10°C° 0 mm 3 mps 632 mmHg 80%
    03:00 +10°C° 0 mm 3 mps 632 mmHg 78%
    04:00 +11°C° 0 mm 3 mps 633 mmHg 74%
    05:00 +11°C° 0 mm 3 mps 634 mmHg 70%
    06:00 +12°C° 0 mm 3 mps 634 mmHg 65%
    07:00 +14°C° 0 mm 3 mps 635 mmHg 57%
    08:00 +17°C° 0 mm 2 mps 636 mmHg 50%
    09:00 +19°C° 0 mm 2 mps 637 mmHg 42%
    10:00 +19°C° 0 mm 2 mps 637 mmHg 43%
    11:00 +20°C° 0 mm 3 mps 638 mmHg 45%
    12:00 +21°C° 0 mm 3 mps 638 mmHg 47%
    13:00 +20°C° 0 mm 3 mps 638 mmHg 50%
    14:00 +20°C° 0 mm 3 mps 638 mmHg 52%
    15:00 +20°C° 0 mm 3 mps 638 mmHg 55%
    16:00 +19°C° 0 mm 2 mps 638 mmHg 61%
    17:00 +18°C° 0 mm 2 mps 638 mmHg 68%
    18:00 +16°C° 0 mm 2 mps 638 mmHg 74%
    19:00 +15°C° 0 mm 2 mps 638 mmHg 75%
    20:00 +13°C° 0 mm 1 mps 637 mmHg 75%
    21:00 +12°C° 0 mm 1 mps 637 mmHg 75%
    22:00 +11°C° 0 mm 1 mps 637 mmHg 69%
    23:00 +11°C° 0 mm 1 mps 637 mmHg 63%

    Day after tomorrow, 27 May, Wednesday

    Time Temperature Precipitation Wind Pressure Humidity
    00:00 +11°C° 0 mm 1 mps 637 mmHg 57%
    01:00 +10°C° 0 mm 2 mps 637 mmHg 55%
    02:00 +10°C° 0 mm 2 mps 637 mmHg 53%
    03:00 +10°C° 0 mm 2 mps 637 mmHg 51%
    04:00 +12°C° 0 mm 2 mps 637 mmHg 52%
    05:00 +14°C° 0 mm 1 mps 638 mmHg 53%
    06:00 +15°C° 0 mm 1 mps 639 mmHg 54%
    07:00 +18°C° 0 mm 1 mps 639 mmHg 53%
    08:00 +18°C° 0 mm 2 mps 640 mmHg 52%
    09:00 +20°C° 0 mm 2 mps 640 mmHg 51%
    10:00 +21°C° 0 mm 2 mps 640 mmHg 52%
    11:00 +21°C° 0 mm 2 mps 640 mmHg 53%
    12:00 +23°C° 0 mm 2 mps 640 mmHg 54%
    13:00 +23°C° 0 mm 2 mps 640 mmHg 55%
    14:00 +23°C° 0 mm 2 mps 640 mmHg 55%
    15:00 +23°C° 0 mm 2 mps 640 mmHg 56%
    16:00 +21°C° 0 mm 2 mps 639 mmHg 61%
    17:00 +21°C° 0 mm 1 mps 639 mmHg 66%
    18:00 +20°C° 0 mm 1 mps 638 mmHg 71%
    19:00 +19°C° 0 mm 1 mps 638 mmHg 68%
    20:00 +16°C° 0 mm 1 mps 637 mmHg 65%
    21:00 +15°C° 0 mm 2 mps 637 mmHg 62%
    22:00 +15°C° 0 mm 2 mps 637 mmHg 58%
    23:00 +14°C° 0 mm 2 mps 636 mmHg 53%

    28 May, Thursday

    Time Temperature Precipitation Wind Pressure Humidity
    00:00 +14°C° 0 mm 2 mps 636 mmHg 48%
    01:00 +14°C° 0 mm 2 mps 636 mmHg 47%
    02:00 +14°C° 0 mm 2 mps 635 mmHg 46%
    03:00 +14°C° 0 mm 2 mps 635 mmHg 45%
    04:00 +16°C° 0 mm 2 mps 636 mmHg 46%
    05:00 +17°C° 0 mm 2 mps 636 mmHg 48%
    06:00 +18°C° 0 mm 2 mps 637 mmHg 49%
    07:00 +20°C° 0 mm 2 mps 637 mmHg 44%
    08:00 +23°C° 0 mm 2 mps 638 mmHg 39%
    09:00 +25°C° 0 mm 1 mps 638 mmHg 34%
    10:00 +26°C° 0 mm 2 mps 638 mmHg 35%
    11:00 +26°C° 0 mm 2 mps 638 mmHg 35%
    12:00 +27°C° 0 mm 2 mps 638 mmHg 36%
    13:00 +26°C° 0 mm 2 mps 637 mmHg 37%
    14:00 +26°C° 0 mm 2 mps 637 mmHg 38%
    15:00 +26°C° 0 mm 2 mps 636 mmHg 39%
    16:00 +25°C° 0 mm 2 mps 636 mmHg 46%
    17:00 +24°C° 0 mm 1 mps 635 mmHg 53%
    18:00 +23°C° 0 mm 1 mps 635 mmHg 61%
    19:00 +21°C° 0 mm 1 mps 634 mmHg 59%
    20:00 +19°C° 0 mm 1 mps 634 mmHg 58%
    21:00 +17°C° 0 mm 2 mps 633 mmHg 56%
    22:00 +16°C° 0 mm 2 mps 633 mmHg 50%
    23:00 +16°C° 0 mm 2 mps 633 mmHg 44%

    29 May, Friday

    Time Temperature Precipitation Wind Pressure Humidity
    00:00 +16°C° 0 mm 2 mps 633 mmHg 38%
    01:00 +16°C° 0 mm 2 mps 632 mmHg 38%
    02:00 +16°C° 0 mm 2 mps 632 mmHg 38%
    03:00 +16°C° 0 mm 2 mps 632 mmHg 38%
    04:00 +17°C° 0 mm 2 mps 632 mmHg 42%
    05:00 +18°C° 0 mm 2 mps 633 mmHg 45%
    06:00 +20°C° 0 mm 2 mps 633 mmHg 49%
    07:00 +23°C° 0 mm 2 mps 634 mmHg 43%
    08:00 +25°C° 0 mm 2 mps 634 mmHg 37%
    09:00 +27°C° 0 mm 2 mps 635 mmHg 31%
    10:00 +27°C° 0 mm 3 mps 635 mmHg 31%
    11:00 +28°C° 0 mm 3 mps 634 mmHg 31%
    12:00 +29°C° 0 mm 4 mps 634 mmHg 31%
    13:00 +28°C° 0 mm 4 mps 634 mmHg 33%
    14:00 +28°C° 0 mm 4 mps 633 mmHg 35%
    15:00 +28°C° 0 mm 4 mps 633 mmHg 36%
    16:00 +26°C° 0.2 mm 3 mps 632 mmHg 44%
    17:00 +25°C° 0.2 mm 3 mps 631 mmHg 52%
    18:00 +23°C° 0.2 mm 2 mps 631 mmHg 59%
    19:00 +21°C° 0.1 mm 2 mps 630 mmHg 60%
    20:00 +19°C° 0.1 mm 2 mps 630 mmHg 61%
    21:00 +18°C° 0.1 mm 2 mps 630 mmHg 61%
    22:00 +17°C° 0.1 mm 2 mps 630 mmHg 62%
    23:00 +17°C° 0.1 mm 2 mps 629 mmHg 63%

    30 May, Saturday

    Time Temperature Precipitation Wind Pressure Humidity
    00:00 +16°C° 0.1 mm 2 mps 629 mmHg 64%
    01:00 +16°C° 0 mm 2 mps 630 mmHg 65%
    02:00 +16°C° 0 mm 2 mps 630 mmHg 65%
    03:00 +15°C° 0 mm 2 mps 630 mmHg 66%
    04:00 +16°C° 0 mm 1 mps 631 mmHg 65%
    05:00 +18°C° 0 mm 1 mps 631 mmHg 65%
    06:00 +19°C° 0 mm 1 mps 632 mmHg 64%
    07:00 +19°C° 0.1 mm 2 mps 633 mmHg 61%
    08:00 +20°C° 0.1 mm 2 mps 633 mmHg 58%
    09:00 +21°C° 0.1 mm 3 mps 634 mmHg 55%
    10:00 +21°C° 0.3 mm 3 mps 634 mmHg 56%
    11:00 +21°C° 0.3 mm 3 mps 634 mmHg 58%
    12:00 +22°C° 0.3 mm 4 mps 635 mmHg 59%
    13:00 +21°C° 0.2 mm 3 mps 635 mmHg 61%
    14:00 +20°C° 0.2 mm 3 mps 635 mmHg 62%
    15:00 +20°C° 0.2 mm 3 mps 634 mmHg 64%
    16:00 +19°C° 0.1 mm 3 mps 634 mmHg 68%
    17:00 +18°C° 0.1 mm 2 mps 634 mmHg 72%
    18:00 +17°C° 0.1 mm 2 mps 634 mmHg 76%
    19:00 +16°C° 0 mm 1 mps 634 mmHg 80%
    20:00 +15°C° 0 mm 1 mps 634 mmHg 83%
    21:00 +13°C° 0 mm 1 mps 635 mmHg 87%
    22:00 +12°C° 0 mm 0 mps 635 mmHg 86%
    23:00 +12°C° 0 mm 0 mps 635 mmHg 86%
    Show more